This is the latest recevied weather packets stored in our database for station/object W0AKO. If no packets are shown the sender has not sent any weather packets the latest 10 day(s).
| Time | Temp. | Humidity | Pressure | Rain* | Wind** | Luminosity | Snow |
|---|---|---|---|---|---|---|---|
| 1777688391 | 23.89° C | 10% | 1015.9 hPa | 0 mm | - | 3 W/m² | - |
| 1777688088 | 24.44° C | 10% | 1015.8 hPa | 0 mm | - | 6 W/m² | - |
| 1777687785 | 24.44° C | 10% | 1015.7 hPa | 0 mm | - | 9 W/m² | - |
| 1777687483 | 25° C | 10% | 1015.8 hPa | 0 mm | - | 13 W/m² | - |
| 1777687179 | 25° C | 10% | 1015.8 hPa | 0 mm | - | 18 W/m² | - |
| 1777686877 | 25° C | 10% | 1015.7 hPa | 0 mm | - | 21 W/m² | - |
| 1777686574 | 25° C | 10% | 1015.5 hPa | 0 mm | - | 26 W/m² | - |
| 1777686271 | 25° C | 10% | 1015.5 hPa | 0 mm | - | 31 W/m² | - |
| 1777685967 | 25.56° C | 10% | 1015.6 hPa | 0 mm | - | 37 W/m² | - |
| 1777685662 | 25.56° C | 10% | 1015.5 hPa | 0 mm | - | 41 W/m² | - |
| 1777685359 | 25.56° C | 10% | 1015.5 hPa | 0 mm | - | 47 W/m² | - |
| 1777685057 | 25.56° C | 10% | 1015.6 hPa | 0 mm | - | 52 W/m² | - |
| 1777684754 | 25.56° C | 10% | 1015.6 hPa | 0 mm | - | 61 W/m² | - |
| 1777684450 | 25.56° C | 10% | 1015.5 hPa | 0 mm | - | 76 W/m² | - |
| 1777684148 | 25.56° C | 10% | 1015.4 hPa | 0 mm | - | 81 W/m² | - |
| 1777683844 | 25.56° C | 10% | 1015.4 hPa | 0 mm | - | 108 W/m² | - |
| 1777683541 | 25.56° C | 10% | 1015.6 hPa | 0 mm | - | 117 W/m² | - |
| 1777683239 | 26.11° C | 10% | 1015.4 hPa | 0 mm | - | 125 W/m² | - |
| 1777682936 | 26.11° C | 10% | 1015.3 hPa | 0 mm | - | 144 W/m² | - |
| 1777682632 | 26.11° C | 10% | 1015.3 hPa | 0 mm | - | 157 W/m² | - |
| 1777682330 | 26.11° C | 10% | 1015.5 hPa | 0 mm | - | 177 W/m² | - |
| 1777682026 | 26.11° C | 10% | 1015.5 hPa | 0 mm | - | 163 W/m² | - |
| 1777681723 | 26.11° C | 10% | 1015.5 hPa | 0 mm | - | 160 W/m² | - |
| 1777681420 | 26.11° C | 10% | 1015.6 hPa | 0 mm | - | 192 W/m² | - |
| 1777681117 | 26.11° C | 10% | 1015.4 hPa | 0 mm | - | 226 W/m² | - |
* Rain latest hour (hover to see other rain measurements)
** Current wind speed in m/s (hover to see current wind gust speed)